�N����,����,�~����,�C��,���x,�C��,����,���ϕ���,�ő�u�ԕ���,�ő厞����,���˗�,�I�_���x,�n�����x,�ő啗���N��,DTYPE
"23/08/02","00:10",0.0,25.4,82.5,1006.9,328.1,0.8,1.2,328.7,0.00,22.2,26.3,"00:02:16",1
"23/08/02","00:20",0.0,25.4,82.6,1006.4,330.1,0.7,1.1,336.7,0.00,22.3,26.2,"00:11:20",1
"23/08/02","00:30",0.0,25.2,83.0,1006.7,336.1,0.7,1.0,348.9,0.00,22.1,26.3,"00:20:08",1
"23/08/02","00:40",0.0,25.1,83.4,1006.4,329.8,1.0,1.9,318.8,0.00,22.1,26.2,"00:34:48",1
"23/08/02","00:50",0.0,25.0,83.6,1006.4,329.3,0.7,1.1,320.2,0.00,22.1,26.3,"00:40:24",1
"23/08/02","01:00",0.0,24.9,84.0,1006.2,311.7,0.6,1.1,332.7,0.00,22.0,25.9,"00:58:56",1
"23/08/02","01:10",0.0,24.9,84.1,1006.4,324.1,0.7,1.3,329.2,0.00,22.1,26.0,"01:00:08",1
"23/08/02","01:20",0.0,24.9,84.4,1006.7,334.9,0.8,1.4,343.3,0.00,22.1,26.1,"01:10:16",1
"23/08/02","01:30",0.0,24.7,84.8,1006.4,290.2,0.6,1.2,251.7,0.00,22.0,25.9,"01:26:48",1
"23/08/02","01:40",0.0,24.8,84.8,1006.2,306.4,0.8,1.6,312.3,0.00,22.1,26.0,"01:37:04",1
"23/08/02","01:50",0.0,24.9,84.5,1006.4,311.0,1.0,1.4,332.0,0.00,22.1,25.8,"01:42:56",1
"23/08/02","02:00",0.0,24.9,84.3,1005.7,325.9,0.7,1.4,354.2,0.00,22.1,26.0,"01:57:04",1
"23/08/02","02:10",0.0,24.8,84.3,1006.4,296.3,0.6,1.3,337.0,0.00,22.0,25.6,"02:00:02",1
"23/08/02","02:20",0.0,24.7,84.4,1006.2,306.8,0.8,1.6,304.6,0.00,21.9,25.7,"02:10:48",1
"23/08/02","02:30",0.0,24.8,84.4,1006.2,322.8,1.0,1.7,6.7,0.00,22.0,26.0,"02:27:28",1
"23/08/02","02:40",0.0,24.8,84.4,1006.4,321.4,1.0,1.4,333.5,0.00,22.0,25.7,"02:30:08",1
"23/08/02","02:50",0.0,24.7,84.4,1006.2,310.4,0.6,1.2,314.9,0.00,21.9,25.7,"02:41:20",1
"23/08/02","03:00",0.0,24.6,84.7,1006.2,324.0,0.7,1.6,313.8,0.00,21.9,25.6,"02:57:44",1
"23/08/02","03:10",0.0,24.5,85.1,1006.4,348.8,0.5,1.1,341.0,0.00,21.9,25.6,"03:00:08",1
"23/08/02","03:20",0.0,24.2,85.6,1006.4,298.7,0.6,1.1,318.0,0.00,21.7,25.6,"03:14:56",1
"23/08/02","03:30",0.0,24.2,86.0,1006.4,306.4,0.8,1.2,326.4,0.00,21.7,25.5,"03:20:16",1
"23/08/02","03:40",0.0,24.1,86.2,1006.2,298.3,0.6,0.9,331.0,0.00,21.7,25.5,"03:31:36",1
"23/08/02","03:50",0.0,24.0,86.7,1006.0,336.2,1.0,1.4,338.7,0.00,21.7,25.5,"03:47:04",1
"23/08/02","04:00",0.0,23.8,87.2,1006.7,334.6,0.8,1.2,355.8,0.00,21.6,25.4,"03:51:12",1
"23/08/02","04:10",0.0,23.5,87.6,1006.7,303.7,0.5,0.8,331.5,0.00,21.4,25.5,"04:00:32",1
"23/08/02","04:20",0.0,23.6,88.2,1006.7,293.0,0.8,1.3,304.7,0.00,21.6,25.6,"04:19:28",1
"23/08/02","04:30",0.0,23.8,88.4,1006.7,306.9,1.1,1.9,324.0,0.00,21.8,25.2,"04:25:44",1
"23/08/02","04:40",0.0,23.7,88.6,1006.7,316.9,0.8,1.2,330.1,0.00,21.7,25.4,"04:37:44",1
"23/08/02","04:50",0.0,23.6,88.8,1006.9,325.8,1.0,1.3,336.4,0.00,21.7,25.2,"04:42:00",1
"23/08/02","05:00",0.0,23.4,89.1,1006.4,302.3,0.7,1.3,342.1,0.00,21.5,25.3,"04:54:48",1
"23/08/02","05:10",0.0,23.5,89.4,1006.4,318.3,0.8,1.2,309.8,0.00,21.7,25.0,"05:06:54",1
"23/08/02","05:20",0.0,23.5,89.6,1006.7,282.8,0.7,1.1,293.7,0.00,21.7,25.3,"05:12:08",1
"23/08/02","05:30",0.0,23.7,89.9,1006.7,304.9,1.0,1.7,335.6,0.00,22.0,24.9,"05:28:56",1
"23/08/02","05:40",0.0,23.8,89.9,1007.1,324.4,1.0,1.4,352.4,0.00,22.1,25.2,"05:35:20",1
"23/08/02","05:50",0.0,23.8,90.0,1006.9,329.7,0.7,1.2,341.0,0.00,22.1,25.0,"05:42:56",1
"23/08/02","06:00",0.0,23.9,90.2,1007.1,334.8,0.7,1.2,339.7,0.00,22.2,25.1,"05:56:40",1
"23/08/02","06:10",0.0,24.3,90.3,1006.9,326.5,0.8,1.6,346.0,0.02,22.6,25.2,"06:03:12",1
"23/08/02","06:20",0.0,25.4,90.3,1006.9,344.7,0.5,1.3,324.0,0.04,23.7,24.8,"06:10:08",1
"23/08/02","06:30",0.0,26.1,89.3,1006.9,347.2,0.5,0.9,339.9,0.06,24.2,25.1,"06:24:08",1
"23/08/02","06:40",0.0,27.1,88.1,1007.4,10.7,0.3,1.0,345.0,0.08,25.0,25.1,"06:32:08",1
"23/08/02","06:50",0.0,27.9,84.4,1007.1,23.5,0.6,1.0,344.6,0.09,25.1,25.2,"06:43:28",1
"23/08/02","07:00",0.0,28.6,80.7,1006.7,1.6,0.5,1.2,345.8,0.10,25.0,25.0,"06:51:20",1
"23/08/02","07:10",0.0,28.6,77.4,1006.4,346.3,0.5,1.1,347.7,0.06,24.3,25.0,"07:01:36",1
"23/08/02","07:20",0.0,28.6,76.7,1006.4,123.3,0.1,0.8,57.1,0.08,24.1,25.1,"07:10:08",1
"23/08/02","07:30",0.0,29.3,76.0,1006.2,71.5,0.2,1.1,331.4,0.13,24.7,25.1,"07:28:56",1
"23/08/02","07:40",0.0,30.0,73.1,1006.7,9.8,0.7,1.6,347.2,0.19,24.7,25.0,"07:39:44",1
"23/08/02","07:50",0.0,30.1,71.7,1007.1,339.8,0.6,1.6,336.0,0.22,24.5,25.1,"07:47:04",1
"23/08/02","08:00",0.0,31.1,69.8,1007.6,68.1,0.6,1.2,2.4,0.24,25.0,25.1,"07:52:24",1
"23/08/02","08:10",0.0,31.4,66.8,1007.8,350.7,0.7,2.0,65.4,0.26,24.5,24.8,"08:03:04",1
"23/08/02","08:20",0.0,31.9,65.5,1008.6,124.1,0.7,2.0,147.4,0.27,24.7,25.1,"08:19:52",1
"23/08/02","08:30",0.0,32.0,63.5,1008.3,173.2,0.8,2.7,210.2,0.30,24.2,25.0,"08:29:52",1
"23/08/02","08:40",0.0,31.5,63.4,1008.8,160.2,1.3,2.6,184.5,0.28,23.7,25.2,"08:30:24",1
"23/08/02","08:50",0.0,31.8,63.6,1008.8,153.7,1.5,2.9,228.6,0.36,24.1,25.1,"08:40:32",1
"23/08/02","09:00",0.0,32.6,61.6,1009.0,132.5,1.2,3.3,149.6,0.37,24.3,25.4,"08:58:24",1
"23/08/02","09:10",0.0,32.5,60.1,1009.0,148.8,1.6,4.1,143.6,0.39,23.8,25.4,"09:01:28",1
"23/08/02","09:20",0.0,32.8,60.2,1008.8,144.0,1.5,3.4,132.4,0.41,24.1,25.3,"09:15:28",1
"23/08/02","09:30",0.0,33.2,59.2,1009.0,120.1,1.1,2.2,143.7,0.42,24.2,25.5,"09:26:40",1
"23/08/02","09:40",0.0,33.0,57.5,1009.0,169.1,1.5,5.1,124.5,0.44,23.5,25.4,"09:30:02",1
"23/08/02","09:50",0.0,33.2,55.7,1008.6,175.7,1.8,4.4,157.7,0.46,23.2,25.6,"09:40:56",1
"23/08/02","10:00",0.0,33.2,56.5,1008.6,196.6,1.8,4.2,212.0,0.47,23.4,25.8,"09:56:16",1
"23/08/02","10:10",0.0,33.4,54.6,1008.8,156.8,1.7,3.3,130.0,0.49,23.0,25.9,"10:06:16",1
"23/08/02","10:20",0.0,33.5,54.7,1008.1,167.2,1.8,4.0,192.4,0.50,23.2,26.1,"10:16:48",1
"23/08/02","10:30",0.0,34.1,53.5,1008.1,153.2,1.2,3.2,183.2,0.49,23.4,26.2,"10:22:00",1
"23/08/02","10:40",0.0,34.2,52.8,1007.8,173.1,2.3,5.5,205.1,0.54,23.2,26.2,"10:39:12",1
"23/08/02","10:50",0.0,34.1,52.3,1008.1,181.4,3.0,5.1,216.2,0.57,23.0,26.2,"10:46:40",1
"23/08/02","11:00",0.0,34.6,51.1,1007.8,199.2,2.5,5.7,225.4,0.51,23.1,26.3,"10:54:32",1
"23/08/02","11:10",0.0,33.9,53.5,1007.6,177.6,1.8,4.2,183.1,0.34,23.2,26.4,"11:04:16",1
"23/08/02","11:20",0.0,34.8,52.3,1007.4,168.8,1.7,3.4,190.4,0.54,23.6,26.5,"11:10:40",1
"23/08/02","11:30",0.0,35.1,50.8,1007.6,144.7,1.6,3.3,147.4,0.54,23.4,26.6,"11:23:04",1
"23/08/02","11:40",0.0,35.1,49.5,1007.8,172.8,1.8,4.2,222.2,0.55,23.0,26.6,"11:34:56",1
"23/08/02","11:50",0.0,34.7,49.2,1007.1,191.4,2.2,5.5,228.8,0.45,22.5,26.9,"11:49:12",1
"23/08/02","12:00",0.0,35.6,49.4,1007.1,168.7,1.8,3.6,174.0,0.56,23.4,27.0,"11:51:12",1
"23/08/02","12:10",0.0,35.5,49.6,1006.9,231.6,2.3,5.4,215.3,0.58,23.4,27.0,"12:01:44",1
"23/08/02","12:20",0.0,36.0,46.5,1006.9,169.4,2.0,4.1,206.0,0.56,22.8,27.0,"12:16:16",1
"23/08/02","12:30",0.0,35.2,47.1,1006.4,205.2,2.1,5.9,204.8,0.38,22.3,27.2,"12:20:16",1
"23/08/02","12:40",0.0,35.1,47.1,1006.4,175.3,1.3,3.6,221.6,0.30,22.2,27.2,"12:31:12",1
"23/08/02","12:50",0.0,35.9,46.8,1006.2,190.0,2.1,4.4,211.0,0.50,22.8,27.2,"12:42:48",1
"23/08/02","13:00",0.0,35.6,48.2,1006.2,159.2,1.8,3.7,140.8,0.37,23.0,27.6,"12:58:08",1
"23/08/02","13:10",0.0,36.2,44.9,1006.7,205.3,1.1,2.7,159.2,0.49,22.4,27.6,"13:01:36",1
"23/08/02","13:20",0.0,37.1,44.8,1006.7,129.5,1.2,3.6,130.7,0.51,23.2,27.6,"13:19:20",1
"23/08/02","13:30",0.0,36.7,44.8,1006.7,158.6,2.5,4.3,148.1,0.57,22.8,27.7,"13:23:20",1
"23/08/02","13:40",0.0,37.4,43.1,1006.7,188.0,1.1,3.3,132.0,0.51,22.8,27.7,"13:30:40",1
"23/08/02","13:50",0.0,37.7,41.8,1006.4,267.5,1.2,5.0,207.1,0.53,22.5,28.1,"13:49:20",1
"23/08/02","14:00",0.0,37.5,41.4,1006.4,205.8,1.8,5.2,222.4,0.51,22.2,28.1,"13:51:04",1
"23/08/02","14:10",0.0,36.7,42.3,1006.2,204.1,2.3,5.2,216.4,0.40,21.8,28.1,"14:07:04",1
"23/08/02","14:20",0.0,36.8,43.3,1006.0,200.1,1.7,3.4,238.7,0.42,22.3,28.1,"14:12:16",1
"23/08/02","14:30",0.0,37.3,41.6,1005.7,198.5,1.8,3.7,204.2,0.46,22.1,28.4,"14:23:44",1
"23/08/02","14:40",0.0,38.1,40.5,1006.2,186.1,1.1,2.5,103.2,0.44,22.4,28.1,"14:34:08",1
"23/08/02","14:50",0.0,37.4,41.7,1005.7,257.4,1.3,3.3,325.5,0.38,22.2,28.2,"14:40:02",1
"23/08/02","15:00",0.0,37.2,43.3,1006.2,273.0,1.3,4.2,317.8,0.37,22.7,28.2,"14:56:08",1
"23/08/02","15:10",0.0,36.1,43.9,1005.7,274.5,1.2,3.3,222.7,0.11,21.9,28.2,"15:03:36",1
"23/08/02","15:20",0.0,36.7,43.5,1005.5,253.0,1.1,2.8,211.9,0.30,22.3,28.4,"15:19:44",1
"23/08/02","15:30",0.0,36.5,45.5,1005.2,204.3,1.7,4.8,205.4,0.26,22.9,28.4,"15:25:20",1
"23/08/02","15:40",0.0,37.0,43.9,1005.2,227.1,1.5,2.7,84.5,0.30,22.7,28.2,"15:34:56",1
"23/08/02","15:50",0.0,37.0,46.4,1004.8,339.1,1.6,3.7,349.2,0.29,23.6,28.3,"15:41:12",1
"23/08/02","16:00",0.0,36.7,45.7,1004.8,321.8,1.3,2.7,351.2,0.23,23.1,28.3,"15:58:08",1
"23/08/02","16:10",0.0,36.9,44.3,1004.5,319.7,1.5,3.6,350.0,0.25,22.8,28.3,"16:09:28",1
"23/08/02","16:20",0.0,36.5,46.0,1004.5,319.7,1.5,3.7,313.0,0.18,23.0,28.3,"16:14:24",1
"23/08/02","16:30",0.0,36.2,46.2,1004.5,307.1,1.3,3.2,336.2,0.17,22.8,28.0,"16:25:44",1
"23/08/02","16:40",0.0,36.2,46.4,1004.1,296.3,1.6,4.3,345.4,0.19,22.9,28.3,"16:36:00",1
"23/08/02","16:50",0.0,36.5,45.5,1004.5,246.5,1.3,3.9,227.7,0.20,22.9,28.2,"16:48:08",1
"23/08/02","17:00",0.0,36.3,46.4,1004.3,255.1,1.6,4.7,237.6,0.16,23.0,28.2,"16:58:16",1
"23/08/02","17:10",0.0,35.8,46.7,1004.5,240.6,2.0,4.1,217.3,0.13,22.7,28.1,"17:00:08",1
"23/08/02","17:20",0.0,35.6,47.7,1004.3,234.0,2.1,4.5,225.6,0.11,22.8,28.1,"17:15:52",1
"23/08/02","17:30",0.0,35.3,47.9,1004.3,241.0,1.8,4.8,233.3,0.09,22.6,28.2,"17:21:04",1
"23/08/02","17:40",0.0,35.0,49.0,1003.8,239.1,2.1,5.0,228.4,0.05,22.7,27.9,"17:33:52",1
"23/08/02","17:50",0.0,34.8,50.0,1003.6,229.5,2.1,3.7,201.9,0.04,22.9,28.2,"17:46:16",1
"23/08/02","18:00",0.0,34.5,50.5,1003.8,228.1,2.2,3.9,184.8,0.04,22.8,28.0,"17:51:44",1
"23/08/02","18:10",0.0,34.1,51.6,1003.8,240.7,1.5,3.6,241.2,0.03,22.8,28.1,"18:09:04",1
"23/08/02","18:20",0.0,33.8,52.6,1003.6,236.2,1.6,4.0,218.5,0.03,22.8,28.1,"18:14:08",1
"23/08/02","18:30",0.0,33.4,53.2,1003.6,223.2,2.6,4.2,230.9,0.02,22.6,28.1,"18:27:44",1
"23/08/02","18:40",0.0,33.0,54.4,1003.4,228.7,1.5,3.3,228.6,0.01,22.6,28.0,"18:33:20",1
"23/08/02","18:50",0.0,32.7,53.8,1003.1,253.2,1.3,3.9,236.8,0.00,22.2,27.8,"18:46:56",1
"23/08/02","19:00",0.0,32.2,55.0,1003.1,273.6,1.6,3.9,246.1,0.00,22.1,27.7,"18:57:52",1
"23/08/02","19:10",0.0,31.8,56.6,1002.9,263.3,2.2,6.2,235.9,0.00,22.2,27.8,"19:02:56",1
"23/08/02","19:20",0.0,31.5,57.7,1002.9,293.4,1.6,5.0,240.4,0.00,22.2,27.7,"19:14:56",1
"23/08/02","19:30",0.0,31.1,59.4,1002.9,308.6,1.6,3.3,315.1,0.00,22.3,27.6,"19:25:20",1
"23/08/02","19:40",0.0,30.9,60.3,1002.9,311.0,2.0,4.2,359.6,0.00,22.4,27.5,"19:38:16",1
"23/08/02","19:50",0.0,30.6,61.1,1002.9,324.6,2.3,4.8,351.9,0.00,22.3,27.7,"19:45:20",1
"23/08/02","20:00",0.0,30.5,62.2,1003.4,327.6,1.6,3.9,350.6,0.00,22.5,27.7,"19:55:04",1
"23/08/02","20:10",0.0,30.3,63.3,1003.4,329.3,1.5,3.7,321.6,0.00,22.6,27.5,"20:02:40",1
"23/08/02","20:20",0.0,30.2,64.1,1003.1,323.1,1.6,3.5,337.3,0.00,22.7,27.4,"20:10:16",1
"23/08/02","20:30",0.0,30.1,64.7,1003.1,278.2,1.0,2.6,232.2,0.00,22.8,27.2,"20:22:32",1
"23/08/02","20:40",0.0,29.9,64.8,1003.4,317.1,1.0,2.7,331.9,0.00,22.6,27.2,"20:32:08",1
"23/08/02","20:50",0.0,30.0,65.7,1003.1,291.1,1.1,2.2,248.7,0.00,22.9,27.3,"20:42:00",1
"23/08/02","21:00",0.0,30.0,66.1,1003.4,313.5,1.1,3.2,251.4,0.00,23.0,27.2,"20:54:24",1
"23/08/02","21:10",0.0,29.9,66.7,1003.4,275.2,1.1,2.0,331.2,0.00,23.1,27.2,"21:01:04",1
"23/08/02","21:20",0.0,29.8,66.9,1003.1,286.5,0.8,2.2,329.8,0.00,23.0,27.1,"21:14:16",1
"23/08/02","21:30",0.0,29.8,67.5,1003.4,314.8,0.7,1.9,328.3,0.00,23.2,26.8,"21:26:00",1
"23/08/02","21:40",0.0,29.6,68.2,1003.6,337.9,0.8,2.5,356.2,0.00,23.2,26.9,"21:35:28",1
"23/08/02","21:50",0.0,29.4,69.2,1003.4,340.7,0.7,1.3,343.4,0.00,23.2,27.2,"21:40:16",1
"23/08/02","22:00",0.0,29.2,70.4,1003.8,331.9,0.6,1.7,344.0,0.00,23.3,26.8,"21:50:56",1
"23/08/02","22:10",0.0,29.3,70.6,1004.1,308.1,0.8,2.4,249.8,0.00,23.4,27.0,"22:04:00",1
"23/08/02","22:20",0.0,29.3,70.7,1004.1,245.0,1.1,2.4,240.8,0.00,23.5,27.0,"22:14:08",1
"23/08/02","22:30",0.0,29.2,69.8,1004.1,169.8,0.8,1.9,161.8,0.00,23.2,26.9,"22:27:20",1
"23/08/02","22:40",0.0,29.1,69.6,1003.8,170.8,1.0,2.0,171.8,0.00,23.0,26.9,"22:36:40",1
"23/08/02","22:50",0.0,29.0,70.1,1004.1,163.6,0.8,1.9,208.3,0.00,23.0,27.0,"22:47:20",1
"23/08/02","23:00",0.0,28.9,70.6,1003.8,180.8,0.8,1.7,215.2,0.00,23.1,26.8,"22:55:52",1
"23/08/02","23:10",0.0,28.7,70.7,1003.8,217.2,0.2,1.0,186.9,0.00,22.9,26.9,"23:08:48",1
"23/08/02","23:20",0.0,28.6,72.6,1004.1,326.4,1.0,2.2,346.0,0.00,23.2,26.7,"23:14:16",1
"23/08/02","23:30",0.0,28.2,73.9,1004.1,316.8,0.8,2.0,336.1,0.00,23.1,26.8,"23:20:32",1
"23/08/02","23:40",0.0,28.0,74.9,1003.8,314.5,1.1,1.8,345.7,0.00,23.2,26.8,"23:38:48",1
"23/08/02","23:50",0.0,27.8,75.7,1004.1,324.7,1.2,2.2,322.2,0.00,23.2,26.7,"23:45:12",1
"23/08/02","24:00",0.0,27.5,76.9,1004.1,337.7,0.7,1.3,342.4,0.00,23.1,26.5,"23:50:08",1
